Weather History for KCWI - January, 2011

Change the Weather History Date:

Saturday, January 15, 2011

  Actual Average Record
Temperature  
Mean Temperature 19 °F -  
Max Temperature 23 °F 28 °F 56 °F (1953)
Min Temperature 12 °F 10 °F -29 °F (2009)
Degree Days  
Heating Degree Days 46    
Moisture  
Dew Point 14 °F    
Average Humidity 81    
Maximum Humidity 93    
Minimum Humidity 68    
Precipitation  
Precipitation 0.00 in - - ()
Sea Level Pressure  
Sea Level Pressure 30.12 in    
Wind  
Wind Speed 12 mph (WNW)    
Max Wind Speed 18 mph    
Max Gust Speed -    
Visibility 8 miles    
Events      
Averages and records for this station are not official NWS values.
T = Trace of Precipitation, MM = Missing Value Source: NWS Daily Summary

Daily Weather History Graph

Daily Weather History Graph

Search for Another Location

Airport or City:

Trip Planner

Search our weather history database for the weather conditions in past years. The results will help you decide how hot, cold, wet, or windy it might be!

Date:

Astronomy

Jan. 15, 2011 Rise Set
Actual Time 7:26 AM CST 4:55 PM CST
Civil Twilight 6:55 AM CST 5:26 PM CST
Nautical Twilight 6:21 AM CST 6:00 PM CST
Astronomical Twilight 5:47 AM CST 6:33 PM CST
Moon 12:53 PM CST (1/15) 3:30 AM CST (1/15)
Length of Visible Light 10h 30m
Length of Day
9h 28m
Waxing Gibbous, 80% of the Moon is Illuminated
Jan 15
Waxing Gibbous
Jan 19
Full
Jan 26
Last Quarter
Feb 2
New
Feb 11
First Quarter

Hourly Weather History & Observations

Time (CST) Temp. Windchill Dew Point Humidity Pressure Visibility Wind Dir Wind Speed Gust Speed Precip Events Conditions
12:15 AM 17.6 °F 8.2 °F 14.0 °F 86% 30.04 in 7.0 mi SW 6.9 mph - N/A   Partly Cloudy
12:35 AM 17.6 °F 8.2 °F 14.0 °F 86% 30.03 in 7.0 mi SW 6.9 mph - N/A   Mostly Cloudy
12:55 AM 19.4 °F 11.5 °F 15.8 °F 86% 30.03 in 6.0 mi SW 5.8 mph - N/A   Mostly Cloudy
1:15 AM 17.6 °F 9.3 °F 15.8 °F 93% 30.03 in 6.0 mi WSW 5.8 mph - N/A   Partly Cloudy
1:35 AM 19.4 °F 7.2 °F 17.6 °F 93% 30.01 in 7.0 mi WSW 11.5 mph - N/A   Clear
1:55 AM 21.2 °F 8.9 °F 17.6 °F 86% 30.00 in 7.0 mi West 12.7 mph - N/A   Clear
2:15 AM 21.2 °F 8.9 °F 17.6 °F 86% 29.99 in 6.0 mi West 12.7 mph - N/A   Clear
2:35 AM 21.2 °F 7.3 °F 19.4 °F 93% 30.00 in 7.0 mi West 16.1 mph - N/A   Clear
2:55 AM 21.2 °F 7.3 °F 17.6 °F 86% 30.01 in 6.0 mi WNW 16.1 mph - N/A   Scattered Clouds
3:15 AM 23.0 °F 8.7 °F 17.6 °F 80% 30.01 in 6.0 mi WNW 18.4 mph - N/A   Overcast
3:35 AM 21.2 °F 6.8 °F 17.6 °F 86% 30.01 in 6.0 mi WNW 17.3 mph - N/A   Overcast
3:55 AM 21.2 °F 6.8 °F 17.6 °F 86% 30.02 in 6.0 mi WNW 17.3 mph - N/A   Overcast
4:15 AM 21.2 °F 6.8 °F 17.6 °F 86% 30.01 in 6.0 mi WNW 17.3 mph - N/A   Overcast
4:35 AM 21.2 °F 7.3 °F 17.6 °F 86% 30.02 in 6.0 mi WNW 16.1 mph - N/A   Overcast
4:55 AM 21.2 °F 8.9 °F 17.6 °F 86% 30.03 in 6.0 mi WNW 12.7 mph - N/A   Mostly Cloudy
5:15 AM 21.2 °F 7.8 °F 17.6 °F 86% 30.04 in 6.0 mi NW 15.0 mph - N/A   Mostly Cloudy
5:35 AM 21.2 °F 7.8 °F 17.6 °F 86% 30.05 in 7.0 mi NW 15.0 mph - N/A   Overcast
5:55 AM 21.2 °F 7.8 °F 17.6 °F 86% 30.06 in 7.0 mi NW 15.0 mph - N/A   Overcast
6:15 AM 21.2 °F 8.3 °F 17.6 °F 86% 30.06 in 8.0 mi NW 13.8 mph - N/A   Overcast
6:35 AM 21.2 °F 8.3 °F 17.6 °F 86% 30.07 in 8.0 mi NW 13.8 mph - N/A   Overcast
6:55 AM 21.2 °F 8.3 °F 17.6 °F 86% 30.08 in 9.0 mi NW 13.8 mph - N/A   Overcast
7:15 AM 21.2 °F 8.9 °F 17.6 °F 86% 30.09 in 9.0 mi NW 12.7 mph - N/A   Overcast
7:35 AM 21.2 °F 7.8 °F 15.8 °F 80% 30.10 in 8.0 mi NW 15.0 mph - N/A   Overcast
7:55 AM 19.4 °F 6.6 °F 15.8 °F 86% 30.11 in 8.0 mi NW 12.7 mph - N/A   Overcast
8:15 AM 19.4 °F 6.6 °F 15.8 °F 86% 30.12 in 7.0 mi NW 12.7 mph - N/A   Overcast
8:35 AM 19.4 °F 5.5 °F 14.0 °F 80% 30.12 in 8.0 mi NW 15.0 mph - N/A   Overcast
8:55 AM 19.4 °F 6.0 °F 14.0 °F 80% 30.14 in 8.0 mi NW 13.8 mph - N/A   Mostly Cloudy
9:15 AM 19.4 °F 5.5 °F 14.0 °F 80% 30.15 in 7.0 mi NW 15.0 mph - N/A   Partly Cloudy
9:35 AM 19.4 °F 5.5 °F 12.2 °F 74% 30.17 in 7.0 mi NW 15.0 mph - N/A   Clear
9:55 AM 19.4 °F 6.0 °F 12.2 °F 74% 30.17 in 7.0 mi NW 13.8 mph - N/A   Clear
10:15 AM 19.4 °F 5.5 °F 12.2 °F 74% 30.18 in 7.0 mi NW 15.0 mph - N/A   Clear
10:35 AM 19.4 °F 5.0 °F 12.2 °F 74% 30.19 in 8.0 mi NW 16.1 mph - N/A   Partly Cloudy
10:55 AM 19.4 °F 5.5 °F 12.2 °F 74% 30.18 in 8.0 mi NW 15.0 mph - N/A   Mostly Cloudy
11:15 AM 19.4 °F 6.0 °F 12.2 °F 74% 30.17 in 9.0 mi NW 13.8 mph - N/A   Overcast
11:35 AM 19.4 °F 7.9 °F 12.2 °F 74% 30.15 in 8.0 mi NW 10.4 mph - N/A   Overcast
11:55 AM 19.4 °F 7.2 °F 12.2 °F 74% 30.17 in 8.0 mi NW 11.5 mph - N/A   Overcast
12:15 PM 19.4 °F 6.6 °F 12.2 °F 74% 30.17 in 9.0 mi NW 12.7 mph - N/A   Overcast
12:35 PM 19.4 °F 6.6 °F 12.2 °F 74% 30.17 in 9.0 mi NNW 12.7 mph - N/A   Overcast
1:15 PM 19.4 °F 6.6 °F 12.2 °F 74% 30.16 in 8.0 mi NW 12.7 mph - N/A   Overcast
1:35 PM 19.4 °F 6.6 °F 14.0 °F 80% 30.17 in 8.0 mi NNW 12.7 mph - N/A   Overcast
1:55 PM 19.4 °F 7.2 °F 12.2 °F 74% 30.18 in 9.0 mi NW 11.5 mph - N/A   Overcast
2:15 PM 21.2 °F 8.3 °F 12.2 °F 68% 30.19 in 9.0 mi NW 13.8 mph - N/A   Overcast
2:35 PM 21.2 °F 9.5 °F 14.0 °F 74% 30.19 in 9.0 mi NW 11.5 mph - N/A   Overcast
2:55 PM 19.4 °F 5.5 °F 12.2 °F 74% 30.20 in 9.0 mi NW 15.0 mph - N/A   Overcast
3:15 PM 19.4 °F 6.0 °F 12.2 °F 74% 30.21 in 9.0 mi NW 13.8 mph - N/A   Overcast
3:35 PM 19.4 °F 8.6 °F 12.2 °F 74% 30.21 in 9.0 mi NW 9.2 mph - N/A   Mostly Cloudy
3:55 PM 19.4 °F 9.5 °F 12.2 °F 74% 30.21 in 9.0 mi NW 8.1 mph - N/A   Overcast
4:15 PM 19.4 °F 10.4 °F 14.0 °F 80% 30.20 in 9.0 mi NW 6.9 mph - N/A   Overcast
4:35 PM 19.4 °F 10.4 °F 14.0 °F 80% 30.22 in 9.0 mi WNW 6.9 mph - N/A   Overcast
4:55 PM 19.4 °F 10.4 °F 12.2 °F 74% 30.22 in 9.0 mi WNW 6.9 mph - N/A   Overcast
5:15 PM 17.6 °F 7.3 °F 12.2 °F 79% 30.24 in 9.0 mi WNW 8.1 mph - N/A   Overcast
5:35 PM 15.8 °F 2.7 °F 10.4 °F 79% 30.25 in 10.0 mi WNW 11.5 mph - N/A   Scattered Clouds
5:55 PM 15.8 °F 5.1 °F 8.6 °F 73% 30.25 in 10.0 mi NW 8.1 mph - N/A   Clear
6:15 PM 12.2 °F 1.7 °F 6.8 °F 79% 30.25 in 10.0 mi WNW 6.9 mph - N/A   Clear
6:35 PM 12.2 °F 2.9 °F 10.4 °F 92% 30.25 in 10.0 mi West 5.8 mph - N/A   Clear
6:55 PM 10.4 °F -1.5 °F 8.6 °F 92% 30.26 in 10.0 mi West 8.1 mph - N/A   Clear
7:15 PM 12.2 °F 1.7 °F 8.6 °F 85% 30.26 in 10.0 mi WNW 6.9 mph - N/A   Clear
7:35 PM 10.4 °F -2.4 °F 6.8 °F 85% 30.26 in 10.0 mi NW 9.2 mph - N/A   Clear
7:55 PM 10.4 °F -0.4 °F 6.8 °F 85% 30.26 in 10.0 mi WNW 6.9 mph - N/A   Clear
8:35 PM 8.6 °F -2.6 °F 3.2 °F 79% 30.27 in 10.0 mi WNW 6.9 mph - N/A   Clear
8:55 PM 6.8 °F -6.9 °F 3.2 °F 85% 30.28 in 10.0 mi West 9.2 mph - N/A   Clear
9:15 PM 6.8 °F -3.5 °F 6.8 °F 100% 30.27 in 10.0 mi West 5.8 mph - N/A   Clear
9:35 PM 6.8 °F -6.9 °F 3.2 °F 85% 30.27 in 10.0 mi WNW 9.2 mph - N/A   Clear
9:55 PM 6.8 °F -5.9 °F 3.2 °F 85% 30.27 in 10.0 mi WNW 8.1 mph - N/A   Clear
10:15 PM 6.8 °F -3.5 °F 5.0 °F 92% 30.28 in 10.0 mi WNW 5.8 mph - N/A   Clear
10:35 PM 5.0 °F -6.9 °F 1.4 °F 85% 30.29 in 10.0 mi NW 6.9 mph - N/A   Clear
10:55 PM 3.2 °F -4.2 °F 1.4 °F 92% 30.28 in 10.0 mi WNW 3.5 mph - N/A   Clear
11:15 PM 3.2 °F -6.2 °F 3.2 °F 100% 30.28 in 10.0 mi NW 4.6 mph - N/A   Clear
11:35 PM 3.2 °F - 1.4 °F 92% 30.28 in 10.0 mi Calm Calm - N/A   Clear
11:55 PM 3.2 °F -7.8 °F 1.4 °F 92% 30.27 in 10.0 mi NW 5.8 mph - N/A   Clear